Year,Month,Day,Hour,Minute,Value (Times are PST for temperature in C)
2006,10,24,00,00,4.20
2006,10,24,00,01,4.20
2006,10,24,00,02,4.20
2006,10,24,00,03,4.20
2006,10,24,00,04,4.20
2006,10,24,00,05,4.20
2006,10,24,00,06,4.20
2006,10,24,00,07,4.20
2006,10,24,00,08,4.10
2006,10,24,00,09,4.10
2006,10,24,00,10,4.00
2006,10,24,00,11,4.00
2006,10,24,00,12,4.00
2006,10,24,00,13,3.90
2006,10,24,00,14,3.90
2006,10,24,00,15,3.90
2006,10,24,00,16,3.90
2006,10,24,00,17,3.90
2006,10,24,00,18,4.00
2006,10,24,00,19,4.00
2006,10,24,00,20,4.00
2006,10,24,00,21,4.00
2006,10,24,00,22,4.00
2006,10,24,00,23,4.00
2006,10,24,00,24,4.00
2006,10,24,00,25,4.00
2006,10,24,00,26,3.90
2006,10,24,00,27,3.90
2006,10,24,00,28,3.90
2006,10,24,00,29,3.90
2006,10,24,00,30,3.90
2006,10,24,00,31,3.90
2006,10,24,00,32,3.90
2006,10,24,00,33,3.90
2006,10,24,00,34,3.90
2006,10,24,00,35,3.90
2006,10,24,00,36,3.90
2006,10,24,00,37,3.90
2006,10,24,00,38,3.90
2006,10,24,00,39,3.80
2006,10,24,00,40,3.80
2006,10,24,00,41,3.80
2006,10,24,00,42,3.80
2006,10,24,00,43,3.80
2006,10,24,00,44,3.80
2006,10,24,00,45,3.80
2006,10,24,00,46,3.80
2006,10,24,00,47,3.80
2006,10,24,00,48,3.80
2006,10,24,00,49,3.80
2006,10,24,00,50,3.80
2006,10,24,00,51,3.80
2006,10,24,00,52,3.80
2006,10,24,00,53,3.80
2006,10,24,00,54,3.80
2006,10,24,00,55,3.80
2006,10,24,00,56,3.80
2006,10,24,00,57,3.80
2006,10,24,00,58,3.80
2006,10,24,00,59,3.80
2006,10,24,01,00,3.80
2006,10,24,01,01,3.80
2006,10,24,01,02,3.80
2006,10,24,01,03,3.70
2006,10,24,01,04,3.70
2006,10,24,01,05,3.70
2006,10,24,01,06,3.70
2006,10,24,01,07,3.70
2006,10,24,01,08,3.70
2006,10,24,01,09,3.70
2006,10,24,01,10,3.70
2006,10,24,01,11,3.70
2006,10,24,01,12,3.70
2006,10,24,01,13,3.70
2006,10,24,01,14,3.70
2006,10,24,01,15,3.70
2006,10,24,01,16,3.70
2006,10,24,01,17,3.70
2006,10,24,01,18,3.80
2006,10,24,01,19,3.80
2006,10,24,01,20,3.80
2006,10,24,01,21,3.80
2006,10,24,01,22,3.80
2006,10,24,01,23,3.80
2006,10,24,01,24,3.80
2006,10,24,01,25,3.90
2006,10,24,01,26,3.90
2006,10,24,01,27,3.90
2006,10,24,01,28,4.00
2006,10,24,01,29,4.00
2006,10,24,01,30,4.00
2006,10,24,01,31,4.00
2006,10,24,01,32,4.00
2006,10,24,01,33,4.10
2006,10,24,01,34,4.10
2006,10,24,01,35,4.10
2006,10,24,01,36,4.10
2006,10,24,01,37,4.20
2006,10,24,01,38,4.20
2006,10,24,01,39,4.30
2006,10,24,01,40,4.40
2006,10,24,01,41,4.50
2006,10,24,01,42,4.50
2006,10,24,01,43,4.50
2006,10,24,01,44,4.60
2006,10,24,01,45,4.60
2006,10,24,01,46,4.70
2006,10,24,01,47,4.70
2006,10,24,01,48,4.80
2006,10,24,01,49,4.80
2006,10,24,01,50,4.80
2006,10,24,01,51,4.80
2006,10,24,01,52,4.90
2006,10,24,01,53,4.90
2006,10,24,01,54,4.90
2006,10,24,01,55,4.80
2006,10,24,01,56,4.80
2006,10,24,01,57,4.80
2006,10,24,01,58,4.80
2006,10,24,01,59,4.80
2006,10,24,02,00,4.80
2006,10,24,02,01,4.90
2006,10,24,02,02,4.90
2006,10,24,02,03,4.90
2006,10,24,02,04,4.90
2006,10,24,02,05,4.90
2006,10,24,02,06,4.90
2006,10,24,02,07,4.90
2006,10,24,02,08,4.90
2006,10,24,02,09,4.90
2006,10,24,02,10,4.90
2006,10,24,02,11,4.90
2006,10,24,02,12,4.90
2006,10,24,02,13,4.90
2006,10,24,02,14,5.00
2006,10,24,02,15,5.10
2006,10,24,02,16,5.10
2006,10,24,02,17,5.10
2006,10,24,02,18,5.10
2006,10,24,02,19,5.10
2006,10,24,02,20,5.10
2006,10,24,02,21,5.10
2006,10,24,02,22,5.20
2006,10,24,02,23,5.20
2006,10,24,02,24,5.20
2006,10,24,02,25,5.20
2006,10,24,02,26,5.20
2006,10,24,02,27,5.20
2006,10,24,02,28,5.20
2006,10,24,02,29,5.20
2006,10,24,02,30,5.30
2006,10,24,02,31,5.30
2006,10,24,02,32,5.30
2006,10,24,02,33,5.30
2006,10,24,02,34,5.30
2006,10,24,02,35,5.30
2006,10,24,02,36,5.30
2006,10,24,02,37,5.40
2006,10,24,02,38,5.40
2006,10,24,02,39,5.40
2006,10,24,02,40,5.40
2006,10,24,02,41,5.40
2006,10,24,02,42,5.50
2006,10,24,02,43,5.50
2006,10,24,02,44,5.50
2006,10,24,02,45,5.50
2006,10,24,02,46,5.50
2006,10,24,02,47,5.50
2006,10,24,02,48,5.50
2006,10,24,02,49,5.50
2006,10,24,02,50,5.50
2006,10,24,02,51,5.50
2006,10,24,02,52,5.50
2006,10,24,02,53,5.50
2006,10,24,02,54,5.50
2006,10,24,02,55,5.60
2006,10,24,02,56,5.60
2006,10,24,02,57,5.60
2006,10,24,02,58,5.60
2006,10,24,02,59,5.60
2006,10,24,03,00,5.60
2006,10,24,03,01,5.60
2006,10,24,03,02,5.60
2006,10,24,03,03,5.70
2006,10,24,03,04,5.70
2006,10,24,03,05,5.70
2006,10,24,03,06,5.70
2006,10,24,03,07,5.70
2006,10,24,03,08,5.70
2006,10,24,03,09,5.70
2006,10,24,03,10,5.70
2006,10,24,03,11,5.80
2006,10,24,03,12,5.80
2006,10,24,03,13,5.80
2006,10,24,03,14,5.80
2006,10,24,03,15,5.80
2006,10,24,03,16,5.80
2006,10,24,03,17,5.90
2006,10,24,03,18,5.90
2006,10,24,03,19,5.90
2006,10,24,03,20,5.90
2006,10,24,03,21,5.90
2006,10,24,03,22,5.90
2006,10,24,03,23,5.90
2006,10,24,03,24,5.90
2006,10,24,03,25,6.00
2006,10,24,03,26,6.00
2006,10,24,03,27,6.00
2006,10,24,03,28,6.00
2006,10,24,03,29,6.00
2006,10,24,03,30,6.00
2006,10,24,03,31,6.00
2006,10,24,03,32,6.10
2006,10,24,03,33,6.10
2006,10,24,03,34,6.10
2006,10,24,03,35,6.10
2006,10,24,03,36,6.10
2006,10,24,03,37,6.10
2006,10,24,03,38,6.20
2006,10,24,03,39,6.20
2006,10,24,03,40,6.20
2006,10,24,03,41,6.20
2006,10,24,03,42,6.20
2006,10,24,03,43,6.20
2006,10,24,03,44,6.20
2006,10,24,03,45,6.20
2006,10,24,03,46,6.20
2006,10,24,03,47,6.20
2006,10,24,03,48,6.20
2006,10,24,03,49,6.20
2006,10,24,03,50,6.30
2006,10,24,03,51,6.30
2006,10,24,03,52,6.40
2006,10,24,03,53,6.40
2006,10,24,03,54,6.40
2006,10,24,03,55,6.40
2006,10,24,03,56,6.40
2006,10,24,03,57,6.40
2006,10,24,03,58,6.40
2006,10,24,03,59,6.40
2006,10,24,04,00,6.40
2006,10,24,04,01,6.40
2006,10,24,04,02,6.40
2006,10,24,04,03,6.50
2006,10,24,04,04,6.60
2006,10,24,04,05,6.60
2006,10,24,04,06,6.60
2006,10,24,04,07,6.60
2006,10,24,04,08,6.70
2006,10,24,04,09,6.70
2006,10,24,04,10,6.70
2006,10,24,04,11,6.80
2006,10,24,04,12,6.80
2006,10,24,04,13,6.80
2006,10,24,04,14,6.80
2006,10,24,04,15,6.80
2006,10,24,04,16,6.80
2006,10,24,04,17,6.80
2006,10,24,04,18,6.90
2006,10,24,04,19,6.90
2006,10,24,04,20,6.90
2006,10,24,04,21,7.00
2006,10,24,04,22,7.00
2006,10,24,04,23,7.00
2006,10,24,04,24,7.10
2006,10,24,04,25,7.10
2006,10,24,04,26,7.10
2006,10,24,04,27,7.10
2006,10,24,04,28,7.20
2006,10,24,04,29,7.20
2006,10,24,04,30,7.20
2006,10,24,04,31,7.20
2006,10,24,04,32,7.20
2006,10,24,04,33,7.30
2006,10,24,04,34,7.30
2006,10,24,04,35,7.30
2006,10,24,04,36,7.30
2006,10,24,04,37,7.30
2006,10,24,04,38,7.30
2006,10,24,04,39,7.30
2006,10,24,04,40,7.30
2006,10,24,04,41,7.30
2006,10,24,04,42,7.30
2006,10,24,04,43,7.30
2006,10,24,04,44,7.30
2006,10,24,04,45,7.30
2006,10,24,04,46,7.30
2006,10,24,04,47,7.30
2006,10,24,04,48,7.30
2006,10,24,04,49,7.40
2006,10,24,04,50,7.50
2006,10,24,04,51,7.60
2006,10,24,04,52,7.60
2006,10,24,04,53,7.70
2006,10,24,04,54,7.70
2006,10,24,04,55,7.80
2006,10,24,04,56,7.80
2006,10,24,04,57,7.80
2006,10,24,04,58,7.80
2006,10,24,04,59,7.80
2006,10,24,05,00,7.80
2006,10,24,05,01,7.80
2006,10,24,05,02,7.80
2006,10,24,05,03,7.80
2006,10,24,05,04,7.80
2006,10,24,05,05,7.80
2006,10,24,05,06,7.80
2006,10,24,05,07,7.80
2006,10,24,05,08,7.80
2006,10,24,05,09,7.80
2006,10,24,05,10,7.90
2006,10,24,05,11,7.90
2006,10,24,05,12,7.90
2006,10,24,05,13,8.00
2006,10,24,05,14,8.00
2006,10,24,05,15,8.00
2006,10,24,05,16,8.00
2006,10,24,05,17,8.10
2006,10,24,05,18,8.10
2006,10,24,05,19,8.10
2006,10,24,05,20,8.00
2006,10,24,05,21,8.00
2006,10,24,05,22,7.90
2006,10,24,05,23,7.90
2006,10,24,05,24,7.90
2006,10,24,05,25,7.80
2006,10,24,05,26,7.80
2006,10,24,05,27,7.80
2006,10,24,05,28,7.70
2006,10,24,05,29,7.70
2006,10,24,05,30,7.70
2006,10,24,05,31,7.60
2006,10,24,05,32,7.60
2006,10,24,05,33,7.60
2006,10,24,05,34,7.60
2006,10,24,05,35,7.60
2006,10,24,05,36,7.60
2006,10,24,05,37,7.60
2006,10,24,05,38,7.60
2006,10,24,05,39,7.60
2006,10,24,05,40,7.60
2006,10,24,05,41,7.70
2006,10,24,05,42,7.70
2006,10,24,05,43,7.70
2006,10,24,05,44,7.70
2006,10,24,05,45,7.80
2006,10,24,05,46,7.80
2006,10,24,05,47,7.80
2006,10,24,05,48,7.80
2006,10,24,05,49,7.80
2006,10,24,05,50,7.80
2006,10,24,05,51,7.80
2006,10,24,05,52,7.90
2006,10,24,05,53,8.00
2006,10,24,05,54,8.00
2006,10,24,05,55,8.10
2006,10,24,05,56,8.10
2006,10,24,05,57,8.20
2006,10,24,05,58,8.20
2006,10,24,05,59,8.20
2006,10,24,06,00,8.30
2006,10,24,06,01,8.30
2006,10,24,06,02,8.30
2006,10,24,06,03,8.30
2006,10,24,06,04,8.40
2006,10,24,06,05,8.40
2006,10,24,06,06,8.40
2006,10,24,06,07,8.40
2006,10,24,06,08,8.40
2006,10,24,06,09,8.50
2006,10,24,06,10,8.50
2006,10,24,06,11,8.50
2006,10,24,06,12,8.50
2006,10,24,06,13,8.50
2006,10,24,06,14,8.50
2006,10,24,06,15,8.50
2006,10,24,06,16,8.50
2006,10,24,06,17,8.50
2006,10,24,06,18,8.50
2006,10,24,06,19,8.50
2006,10,24,06,20,8.50
2006,10,24,06,21,8.50
2006,10,24,06,22,8.50
2006,10,24,06,23,8.50
2006,10,24,06,24,8.50
2006,10,24,06,25,8.50
2006,10,24,06,26,8.50
2006,10,24,06,27,8.50
2006,10,24,06,28,8.50
2006,10,24,06,29,8.60
2006,10,24,06,30,8.60
2006,10,24,06,31,8.60
2006,10,24,06,32,8.60
2006,10,24,06,33,8.60
2006,10,24,06,34,8.60
2006,10,24,06,35,8.70
2006,10,24,06,36,8.70
2006,10,24,06,37,8.70
2006,10,24,06,38,8.70
2006,10,24,06,39,8.70
2006,10,24,06,40,8.70
2006,10,24,06,41,8.70
2006,10,24,06,42,8.70
2006,10,24,06,43,8.70
2006,10,24,06,44,8.70
2006,10,24,06,45,8.70
2006,10,24,06,46,8.70
2006,10,24,06,47,8.70
2006,10,24,06,48,8.70
2006,10,24,06,49,8.70
2006,10,24,06,50,8.60
2006,10,24,06,51,8.70
2006,10,24,06,52,8.70
2006,10,24,06,53,8.70
2006,10,24,06,54,8.80
2006,10,24,06,55,8.90
2006,10,24,06,56,8.90
2006,10,24,06,57,9.00
2006,10,24,06,58,9.00
2006,10,24,06,59,9.00
2006,10,24,07,00,9.00
2006,10,24,07,01,9.00
2006,10,24,07,02,9.00
2006,10,24,07,03,9.00
2006,10,24,07,04,9.00
2006,10,24,07,05,8.90
2006,10,24,07,06,8.90
2006,10,24,07,07,8.90
2006,10,24,07,08,8.90
2006,10,24,07,09,8.90
2006,10,24,07,10,8.90
2006,10,24,07,11,8.90
2006,10,24,07,12,8.90
2006,10,24,07,13,8.90
2006,10,24,07,14,8.90
2006,10,24,07,15,8.90
2006,10,24,07,16,8.90
2006,10,24,07,17,8.90
2006,10,24,07,18,8.90
2006,10,24,07,19,8.90
2006,10,24,07,20,8.90
2006,10,24,07,21,8.90
2006,10,24,07,22,8.90
2006,10,24,07,23,8.80
2006,10,24,07,24,8.80
2006,10,24,07,25,8.80
2006,10,24,07,26,8.80
2006,10,24,07,27,8.80
2006,10,24,07,28,8.70
2006,10,24,07,29,8.70
2006,10,24,07,30,8.70
2006,10,24,07,31,8.70
2006,10,24,07,32,8.70
2006,10,24,07,33,8.60
2006,10,24,07,34,8.60
2006,10,24,07,35,8.60
2006,10,24,07,36,8.50
2006,10,24,07,37,8.50
2006,10,24,07,38,8.50
2006,10,24,07,39,8.40
2006,10,24,07,40,8.40
2006,10,24,07,41,8.40
2006,10,24,07,42,8.40
2006,10,24,07,43,8.40
2006,10,24,07,44,8.50
2006,10,24,07,45,8.50
2006,10,24,07,46,8.50
2006,10,24,07,47,8.50
2006,10,24,07,48,8.50
2006,10,24,07,49,8.50
2006,10,24,07,50,8.50
2006,10,24,07,51,8.50
2006,10,24,07,52,8.50
2006,10,24,07,53,8.50
2006,10,24,07,54,8.50
2006,10,24,07,55,8.50
2006,10,24,07,56,8.50
2006,10,24,07,57,8.40
2006,10,24,07,58,8.40
2006,10,24,07,59,8.30
2006,10,24,08,00,8.30
2006,10,24,08,01,8.30
2006,10,24,08,02,8.30
2006,10,24,08,03,8.30
2006,10,24,08,04,8.30
2006,10,24,08,05,8.30
2006,10,24,08,06,8.20
2006,10,24,08,07,8.20
2006,10,24,08,08,8.10
2006,10,24,08,09,8.10
2006,10,24,08,10,8.10
2006,10,24,08,11,8.00
2006,10,24,08,12,8.00
2006,10,24,08,13,8.00
2006,10,24,08,14,7.90
2006,10,24,08,15,7.90
2006,10,24,08,16,7.90
2006,10,24,08,17,7.90
2006,10,24,08,18,7.90
2006,10,24,08,19,8.00
2006,10,24,08,20,8.00
2006,10,24,08,21,8.00
2006,10,24,08,22,8.00
2006,10,24,08,23,8.10
2006,10,24,08,24,8.20
2006,10,24,08,25,8.20
2006,10,24,08,26,8.20
2006,10,24,08,27,8.20
2006,10,24,08,28,8.20
2006,10,24,08,29,8.30
2006,10,24,08,30,8.30
2006,10,24,08,31,8.30
2006,10,24,08,32,8.30
2006,10,24,08,33,8.30
2006,10,24,08,34,8.40
2006,10,24,08,35,8.40
2006,10,24,08,36,8.40
2006,10,24,08,37,8.50
2006,10,24,08,38,8.50
2006,10,24,08,39,8.60
2006,10,24,08,40,8.70
2006,10,24,08,41,8.70
2006,10,24,08,42,8.70
2006,10,24,08,43,8.70
2006,10,24,08,44,8.70
2006,10,24,08,45,8.70
2006,10,24,08,46,8.70
2006,10,24,08,47,8.70
2006,10,24,08,48,8.70
2006,10,24,08,49,8.70
2006,10,24,08,50,8.70
2006,10,24,08,51,8.70
2006,10,24,08,52,8.70
2006,10,24,08,53,8.70
2006,10,24,08,54,8.70
2006,10,24,08,55,8.70
2006,10,24,08,56,8.70
2006,10,24,08,57,8.70
2006,10,24,08,58,8.70
2006,10,24,08,59,8.70
2006,10,24,09,00,8.70
2006,10,24,09,01,8.70
2006,10,24,09,02,8.70
2006,10,24,09,03,8.70
2006,10,24,09,04,8.70
2006,10,24,09,05,8.80
2006,10,24,09,06,8.80
2006,10,24,09,07,8.90
2006,10,24,09,08,8.90
2006,10,24,09,09,8.90
2006,10,24,09,10,9.00
2006,10,24,09,11,9.00
2006,10,24,09,12,9.00
2006,10,24,09,13,9.00
2006,10,24,09,14,9.10
2006,10,24,09,15,9.10
2006,10,24,09,16,9.10
2006,10,24,09,17,9.20
2006,10,24,09,18,9.20
2006,10,24,09,19,9.20
2006,10,24,09,20,9.20
2006,10,24,09,21,9.20
2006,10,24,09,22,9.20
2006,10,24,09,23,9.20
2006,10,24,09,24,9.20
2006,10,24,09,25,9.20
2006,10,24,09,26,9.20
2006,10,24,09,27,9.20
2006,10,24,09,28,9.20
2006,10,24,09,29,9.20
2006,10,24,09,30,9.20
2006,10,24,09,31,9.10
2006,10,24,09,32,9.10
2006,10,24,09,33,9.10
2006,10,24,09,34,9.10
2006,10,24,09,35,9.00
2006,10,24,09,36,9.00
2006,10,24,09,37,9.00
2006,10,24,09,38,9.00
2006,10,24,09,39,9.00
2006,10,24,09,40,9.00
2006,10,24,09,41,8.90
2006,10,24,09,42,8.90
2006,10,24,09,43,8.90
2006,10,24,09,44,8.90
2006,10,24,09,45,8.90
2006,10,24,09,46,9.00
2006,10,24,09,47,9.00
2006,10,24,09,48,9.00
2006,10,24,09,49,9.00
2006,10,24,09,50,9.00
2006,10,24,09,51,9.00
2006,10,24,09,52,9.00
2006,10,24,09,53,9.10
2006,10,24,09,54,9.10
2006,10,24,09,55,9.10
2006,10,24,09,56,9.20
2006,10,24,09,57,9.20
2006,10,24,09,58,9.20
2006,10,24,09,59,9.20
2006,10,24,10,00,9.20
2006,10,24,10,01,9.20
2006,10,24,10,02,9.20
2006,10,24,10,03,9.20
2006,10,24,10,04,9.20
2006,10,24,10,05,9.20
2006,10,24,10,06,9.20
2006,10,24,10,07,9.20
2006,10,24,10,08,9.20
2006,10,24,10,09,9.20
2006,10,24,10,10,9.30
2006,10,24,10,11,9.30
2006,10,24,10,12,9.30
2006,10,24,10,13,9.30
2006,10,24,10,14,9.30
2006,10,24,10,15,9.40
2006,10,24,10,16,9.40
2006,10,24,10,17,9.40
2006,10,24,10,18,9.40
2006,10,24,10,19,9.50
2006,10,24,10,20,9.50
2006,10,24,10,21,9.50
2006,10,24,10,22,9.50
2006,10,24,10,23,9.50
2006,10,24,10,24,9.60
2006,10,24,10,25,9.60
2006,10,24,10,26,9.60
2006,10,24,10,27,9.70
2006,10,24,10,28,9.70
2006,10,24,10,29,9.70
2006,10,24,10,30,9.70
2006,10,24,10,31,9.70
2006,10,24,10,32,9.70
2006,10,24,10,33,9.70
2006,10,24,10,34,9.70
2006,10,24,10,35,9.70
2006,10,24,10,36,9.70
2006,10,24,10,37,9.70
2006,10,24,10,38,9.70
2006,10,24,10,39,9.70
2006,10,24,10,40,9.70
2006,10,24,10,41,9.70
2006,10,24,10,42,9.60
2006,10,24,10,43,9.70
2006,10,24,10,44,9.70
2006,10,24,10,45,9.70
2006,10,24,10,46,9.70
2006,10,24,10,47,9.70
2006,10,24,10,48,9.70
2006,10,24,10,49,9.70
2006,10,24,10,50,9.70
2006,10,24,10,51,9.70
2006,10,24,10,52,9.70
2006,10,24,10,53,9.70
2006,10,24,10,54,9.70
2006,10,24,10,55,9.70
2006,10,24,10,56,9.70
2006,10,24,10,57,9.70
2006,10,24,10,58,9.70
2006,10,24,10,59,9.70
2006,10,24,11,00,9.70
2006,10,24,11,01,9.70
2006,10,24,11,02,9.70
2006,10,24,11,03,9.70
2006,10,24,11,04,9.70
2006,10,24,11,05,9.80
2006,10,24,11,06,9.80
2006,10,24,11,07,9.80
2006,10,24,11,08,9.80
2006,10,24,11,09,9.80
2006,10,24,11,10,9.80
2006,10,24,11,11,9.80
2006,10,24,11,12,9.80
2006,10,24,11,13,9.80
2006,10,24,11,14,9.80
2006,10,24,11,15,9.80
2006,10,24,11,16,9.90
2006,10,24,11,17,9.90
2006,10,24,11,18,9.90
2006,10,24,11,19,9.90
2006,10,24,11,20,9.90
2006,10,24,11,21,9.90
2006,10,24,11,22,9.90
2006,10,24,11,23,9.90
2006,10,24,11,24,9.90
2006,10,24,11,25,9.90
2006,10,24,11,26,9.90
2006,10,24,11,27,9.90
2006,10,24,11,28,9.90
2006,10,24,11,29,9.90
2006,10,24,11,30,10.00
2006,10,24,11,31,10.00
2006,10,24,11,32,9.90
2006,10,24,11,33,9.90
2006,10,24,11,34,9.90
2006,10,24,11,35,9.90
2006,10,24,11,36,9.90
2006,10,24,11,37,9.90
2006,10,24,11,38,9.90
2006,10,24,11,39,9.90
2006,10,24,11,40,9.90
2006,10,24,11,41,9.90
2006,10,24,11,42,9.90
2006,10,24,11,43,9.90
2006,10,24,11,44,9.90
2006,10,24,11,45,9.90
2006,10,24,11,46,9.90
2006,10,24,11,47,9.90
2006,10,24,11,48,9.90
2006,10,24,11,49,9.90
2006,10,24,11,50,9.90
2006,10,24,11,51,9.90
2006,10,24,11,52,10.00
2006,10,24,11,53,10.10
2006,10,24,11,54,10.00
2006,10,24,11,55,9.90
2006,10,24,11,56,9.90
2006,10,24,11,57,9.90
2006,10,24,11,58,9.90
2006,10,24,11,59,9.90
2006,10,24,12,00,9.90
2006,10,24,12,01,9.90
2006,10,24,12,02,9.90
2006,10,24,12,03,9.90
2006,10,24,12,04,9.90
2006,10,24,12,05,9.90
2006,10,24,12,06,9.90
2006,10,24,12,07,9.80
2006,10,24,12,08,9.80
2006,10,24,12,09,9.80
2006,10,24,12,10,9.80
2006,10,24,12,11,9.80
2006,10,24,12,12,9.80
2006,10,24,12,13,9.80
2006,10,24,12,14,9.80
2006,10,24,12,15,9.80
2006,10,24,12,16,9.80
2006,10,24,12,17,9.80
2006,10,24,12,18,9.80
2006,10,24,12,19,9.80
2006,10,24,12,20,9.80
2006,10,24,12,21,9.80
2006,10,24,12,22,9.80
2006,10,24,12,23,9.80
2006,10,24,12,24,9.80
2006,10,24,12,25,9.70
2006,10,24,12,26,9.70
2006,10,24,12,27,9.70
2006,10,24,12,28,9.70
2006,10,24,12,29,9.70
2006,10,24,12,30,9.70
2006,10,24,12,31,9.70
2006,10,24,12,32,9.70
2006,10,24,12,33,9.70
2006,10,24,12,34,9.70
2006,10,24,12,35,9.70
2006,10,24,12,36,9.70
2006,10,24,12,37,9.70
2006,10,24,12,38,9.70
2006,10,24,12,39,9.70
2006,10,24,12,40,9.70
2006,10,24,12,41,9.70
2006,10,24,12,42,9.70
2006,10,24,12,43,9.70
2006,10,24,12,44,9.70
2006,10,24,12,45,9.80
2006,10,24,12,46,9.80
2006,10,24,12,47,9.80
2006,10,24,12,48,9.90
2006,10,24,12,49,9.90
2006,10,24,12,50,9.90
2006,10,24,12,51,9.90
2006,10,24,12,52,10.00
2006,10,24,12,53,10.10
2006,10,24,12,54,10.10
2006,10,24,12,55,10.10
2006,10,24,12,56,10.10
2006,10,24,12,57,10.10
2006,10,24,12,58,10.00
2006,10,24,12,59,9.90
2006,10,24,13,00,9.90
2006,10,24,13,01,9.90
2006,10,24,13,02,9.90
2006,10,24,13,03,9.90
2006,10,24,13,04,9.90
2006,10,24,13,05,9.90
2006,10,24,13,06,9.90
2006,10,24,13,07,9.90
2006,10,24,13,08,9.90
2006,10,24,13,09,9.90
2006,10,24,13,10,9.90
2006,10,24,13,11,9.90
2006,10,24,13,12,9.90
2006,10,24,13,13,9.90
2006,10,24,13,14,9.90
2006,10,24,13,15,9.90
2006,10,24,13,16,9.90
2006,10,24,13,17,9.90
2006,10,24,13,18,9.90
2006,10,24,13,19,10.00
2006,10,24,13,20,10.10
2006,10,24,13,21,10.10
2006,10,24,13,22,10.10
2006,10,24,13,23,10.10
2006,10,24,13,24,10.10
2006,10,24,13,25,10.10
2006,10,24,13,26,10.10
2006,10,24,13,27,10.10
2006,10,24,13,28,10.20
2006,10,24,13,29,10.20
2006,10,24,13,30,10.20
2006,10,24,13,31,10.20
2006,10,24,13,32,10.20
2006,10,24,13,33,10.20
2006,10,24,13,34,10.20
2006,10,24,13,35,10.20
2006,10,24,13,36,10.20
2006,10,24,13,37,10.20
2006,10,24,13,38,10.20
2006,10,24,13,39,10.20
2006,10,24,13,40,10.20
2006,10,24,13,41,10.20
2006,10,24,13,42,10.20
2006,10,24,13,43,10.20
2006,10,24,13,44,10.20
2006,10,24,13,45,10.20
2006,10,24,13,46,10.20
2006,10,24,13,47,10.20
2006,10,24,13,48,10.30
2006,10,24,13,49,10.30
2006,10,24,13,50,10.30
2006,10,24,13,51,10.30
2006,10,24,13,52,10.30
2006,10,24,13,53,10.30
2006,10,24,13,54,10.30
2006,10,24,13,55,10.30
2006,10,24,13,56,10.30
2006,10,24,13,57,10.40
2006,10,24,13,58,10.40
2006,10,24,13,59,10.40
2006,10,24,14,00,10.40
2006,10,24,14,01,10.40
2006,10,24,14,02,10.40
2006,10,24,14,03,10.40
2006,10,24,14,04,10.30
2006,10,24,14,05,10.30
2006,10,24,14,06,10.30
2006,10,24,14,07,10.30
2006,10,24,14,08,10.30
2006,10,24,14,09,10.30
2006,10,24,14,10,10.30
2006,10,24,14,11,10.30
2006,10,24,14,12,10.30
2006,10,24,14,13,10.30
2006,10,24,14,14,10.30
2006,10,24,14,15,10.30
2006,10,24,14,16,10.30
2006,10,24,14,17,10.30
2006,10,24,14,18,10.30
2006,10,24,14,19,10.30
2006,10,24,14,20,10.30
2006,10,24,14,21,10.30
2006,10,24,14,22,10.30
2006,10,24,14,23,10.30
2006,10,24,14,24,10.30
2006,10,24,14,25,10.40
2006,10,24,14,26,10.40
2006,10,24,14,27,10.40
2006,10,24,14,28,10.40
2006,10,24,14,29,10.40
2006,10,24,14,30,10.40
2006,10,24,14,31,10.40
2006,10,24,14,32,10.40
2006,10,24,14,33,10.40
2006,10,24,14,34,10.40
2006,10,24,14,35,10.40
2006,10,24,14,36,10.40
2006,10,24,14,37,10.40
2006,10,24,14,38,10.40
2006,10,24,14,39,10.40
2006,10,24,14,40,10.50
2006,10,24,14,41,10.60
2006,10,24,14,42,10.60
2006,10,24,14,43,10.60
2006,10,24,14,44,10.60
2006,10,24,14,45,10.60
2006,10,24,14,46,10.60
2006,10,24,14,47,10.60
2006,10,24,14,48,10.60
2006,10,24,14,49,10.60
2006,10,24,14,50,10.60
2006,10,24,14,51,10.60
2006,10,24,14,52,10.60
2006,10,24,14,53,10.60
2006,10,24,14,54,10.70
2006,10,24,14,55,10.60
2006,10,24,14,56,10.60
2006,10,24,14,57,10.70
2006,10,24,14,58,10.70
2006,10,24,14,59,10.70
2006,10,24,15,00,10.70
2006,10,24,15,01,10.60
2006,10,24,15,02,10.60
2006,10,24,15,03,10.60
2006,10,24,15,04,10.60
2006,10,24,15,05,10.60
2006,10,24,15,06,10.60
2006,10,24,15,07,10.60
2006,10,24,15,08,10.60
2006,10,24,15,09,10.60
2006,10,24,15,10,10.60
2006,10,24,15,11,10.70
2006,10,24,15,12,10.70
2006,10,24,15,13,10.70
2006,10,24,15,14,10.70
2006,10,24,15,15,10.70
2006,10,24,15,16,10.70
2006,10,24,15,17,10.70
2006,10,24,15,18,10.70
2006,10,24,15,19,10.70
2006,10,24,15,20,10.80
2006,10,24,15,21,10.80
2006,10,24,15,22,10.80
2006,10,24,15,23,10.80
2006,10,24,15,24,10.90
2006,10,24,15,25,10.90
2006,10,24,15,26,10.90
2006,10,24,15,27,10.90
2006,10,24,15,28,10.90
2006,10,24,15,29,10.90
2006,10,24,15,30,11.00
2006,10,24,15,31,11.10
2006,10,24,15,32,11.10
2006,10,24,15,33,11.10
2006,10,24,15,34,11.20
2006,10,24,15,35,11.30
2006,10,24,15,36,11.30
2006,10,24,15,37,11.30
2006,10,24,15,38,11.40
2006,10,24,15,39,11.40
2006,10,24,15,40,11.40
2006,10,24,15,41,11.40
2006,10,24,15,42,11.40
2006,10,24,15,43,11.40
2006,10,24,15,44,11.40
2006,10,24,15,45,11.40
2006,10,24,15,46,11.40
2006,10,24,15,47,11.40
2006,10,24,15,48,11.40
2006,10,24,15,49,11.40
2006,10,24,15,50,11.60
2006,10,24,15,51,11.60
2006,10,24,15,52,11.60
2006,10,24,15,53,11.60
2006,10,24,15,54,11.60
2006,10,24,15,55,11.50
2006,10,24,15,56,11.40
2006,10,24,15,57,11.40
2006,10,24,15,58,11.40
2006,10,24,15,59,11.40
2006,10,24,16,00,11.40
2006,10,24,16,01,11.40
2006,10,24,16,02,11.40
2006,10,24,16,03,11.40
2006,10,24,16,04,11.40
2006,10,24,16,05,11.40
2006,10,24,16,06,11.40
2006,10,24,16,07,11.40
2006,10,24,16,08,11.40
2006,10,24,16,09,11.40
2006,10,24,16,10,11.40
2006,10,24,16,11,11.30
2006,10,24,16,12,11.30
2006,10,24,16,13,11.30
2006,10,24,16,14,11.30
2006,10,24,16,15,11.20
2006,10,24,16,16,11.20
2006,10,24,16,17,11.20
2006,10,24,16,18,11.10
2006,10,24,16,19,11.10
2006,10,24,16,20,11.10
2006,10,24,16,21,11.10
2006,10,24,16,22,11.10
2006,10,24,16,23,11.10
2006,10,24,16,24,11.10
2006,10,24,16,25,11.10
2006,10,24,16,26,11.10
2006,10,24,16,27,11.10
2006,10,24,16,28,11.10
2006,10,24,16,29,11.10
2006,10,24,16,30,11.10
2006,10,24,16,31,11.10
2006,10,24,16,32,11.10
2006,10,24,16,33,11.20
2006,10,24,16,34,11.20
2006,10,24,16,35,11.20
2006,10,24,16,36,11.30
2006,10,24,16,37,11.30
2006,10,24,16,38,11.30
2006,10,24,16,39,11.30
2006,10,24,16,40,11.30
2006,10,24,16,41,11.30
2006,10,24,16,42,11.30
2006,10,24,16,43,11.30
2006,10,24,16,44,11.20
2006,10,24,16,45,11.20
2006,10,24,16,46,11.20
2006,10,24,16,47,11.10
2006,10,24,16,48,11.10
2006,10,24,16,49,11.10
2006,10,24,16,50,10.90
2006,10,24,16,51,10.90
2006,10,24,16,52,10.90
2006,10,24,16,53,10.90
2006,10,24,16,54,10.80
2006,10,24,16,55,10.80
2006,10,24,16,56,10.80
2006,10,24,16,57,10.70
2006,10,24,16,58,10.70
2006,10,24,16,59,10.70
2006,10,24,17,00,10.70
2006,10,24,17,01,10.60
2006,10,24,17,02,10.60
2006,10,24,17,03,10.60
2006,10,24,17,04,10.60
2006,10,24,17,05,10.60
2006,10,24,17,06,10.60
2006,10,24,17,07,10.60
2006,10,24,17,08,10.60
2006,10,24,17,09,10.50
2006,10,24,17,10,10.40
2006,10,24,17,11,10.40
2006,10,24,17,12,10.40
2006,10,24,17,13,10.40
2006,10,24,17,14,10.40
2006,10,24,17,15,10.40
2006,10,24,17,16,10.40
2006,10,24,17,17,10.40
2006,10,24,17,18,10.30
2006,10,24,17,19,10.30
2006,10,24,17,20,10.30
2006,10,24,17,21,10.20
2006,10,24,17,22,10.20
2006,10,24,17,23,10.20
2006,10,24,17,24,10.20
2006,10,24,17,25,10.20
2006,10,24,17,26,10.10
2006,10,24,17,27,10.10
2006,10,24,17,28,10.10
2006,10,24,17,29,10.10
2006,10,24,17,30,10.10
2006,10,24,17,31,10.10
2006,10,24,17,32,10.10
2006,10,24,17,33,10.10
2006,10,24,17,34,10.10
2006,10,24,17,35,10.10
2006,10,24,17,36,10.00
2006,10,24,17,37,9.90
2006,10,24,17,38,9.90
2006,10,24,17,39,9.90
2006,10,24,17,40,9.90
2006,10,24,17,41,9.90
2006,10,24,17,42,9.90
2006,10,24,17,43,9.90
2006,10,24,17,44,9.90
2006,10,24,17,45,9.90
2006,10,24,17,46,9.90
2006,10,24,17,47,9.90
2006,10,24,17,48,9.90
2006,10,24,17,49,9.90
2006,10,24,17,50,9.90
2006,10,24,17,51,9.90
2006,10,24,17,52,9.90
2006,10,24,17,53,9.80
2006,10,24,17,54,9.80